Location: Newark
(43.9494°N, 6.8108°E)
Time: 15:59:51
(UTC+00:00)

A-11 Canister half - Pass Details

Date: 29 October 2019
Orbit: 1514 x 1686 km, 47.2° (Epoch: 13 November)

Event Time Altitude Azimuth Distance (km) Brightness Sun altitude
Rises 04:31:42 0° 292° (WNW) 4,865 - -17.2°
Reaches altitude 10° 04:34:52 10° 291° (WNW) 3,855 - -16.7°
Exits shadow 04:37:11 20° 289° (WNW) 3,142 10.0 -16.3°
Maximum altitude 04:44:37 73° 210° (SSW) 1,640 9.0 -14.9°
Drops below altitude 10° 04:53:58 10° 127° (SE) 3,712 12.0 -13.2°
Sets 04:56:58 0° 126° (SE) 4,677 12.7 -12.7°
